GAOFEN-2

Last updated on Mon Jun 22 2026 00:02:51 GMT+0000 (Coordinated Universal Time)

1 40118U 14049A 26172.50067434 .00000583 00000+0 82406-4 0 9998 2 40118 98.0103 236.7043 0006386 210.2228 149.8617 14.80903184639879
UTC large
Height (km)
Speed (km/s)
/
Latitude / Longitude
Inclination (degrees)
Orbital Period (minutes)
Azimuth
Elevation
Range (km)
Doppler Factor

Next 0 passes for location: London (51.5072 / 0.1276)

No passes found over London.
GAOFEN-2